Bellefontaine, OH

12:48 AM EDT on October 17, 2017 (GMT -0400)
Bellefontaine

Weather History for KEDJ - May, 2013

Change the Weather History Date:

Thursday, May 23, 2013

  Actual Average (KDLZ) Record (KDLZ)
Temperature  
Mean Temperature 55 °F -  
Max Temperature 66 °F 74 °F 90 °F (1939)
Min Temperature 44 °F 50 °F 33 °F (1963)
Degree Days  
Heating Degree Days 10    
Growing Degree Days 5 (Base 50)    
Moisture  
Dew Point 55 °F    
Average Humidity 91    
Maximum Humidity 100    
Minimum Humidity 68    
Precipitation  
Precipitation 0.06 in - - ()
Sea Level Pressure  
Sea Level Pressure 29.87 in    
Wind  
Wind Speed 9 mph (WSW)    
Max Wind Speed 22 mph    
Max Gust Speed 30 mph    
Visibility 9 miles    
Events      
Averages and records for this station are not official NWS values.
T = Trace of Precipitation, MM = Missing Value Source: NWS Daily Summary

Daily Weather History Graph

Daily Weather History Graph

Search for Another Location

Airport or City:

Trip Planner

Search our weather history database for the weather conditions in past years. The results will help you decide how hot, cold, wet, or windy it might be!

Date:

Astronomy

May. 23, 2013 Rise Set
Actual Time 6:12 AM EDT 8:52 PM EDT
Civil Twilight 5:40 AM EDT 9:24 PM EDT
Nautical Twilight 5:01 AM EDT 10:03 PM EDT
Astronomical Twilight 4:16 AM EDT 10:48 PM EDT
Moon 7:23 PM EDT (5/23) 4:56 AM EDT (5/23)
Length of Visible Light 15h 43m
Length of Day
14h 39m
Waxing Gibbous, 97% of the Moon is Illuminated
May 23
Waxing Gibbous
May 25
Full
May 31
Last Quarter
Jun 8
New
Jun 16
First Quarter

Hourly Weather History & Observations

Time (EDT) Temp. Windchill Dew Point Humidity Pressure Visibility Wind Dir Wind Speed Gust Speed Precip Events Conditions
12:05 AM 62.6 °F - 62.6 °F 100% 29.77 in 10.0 mi South 3.5 mph - 0.00 in   Mostly Cloudy
12:25 AM 64.4 °F - 64.4 °F 100% 29.78 in 10.0 mi South 3.5 mph - 0.00 in   Mostly Cloudy
12:45 AM 64.4 °F - 64.4 °F 100% 29.78 in 10.0 mi SSE 5.8 mph - 0.00 in   Mostly Cloudy
1:05 AM 64.4 °F - - N/A% 29.78 in 7.0 mi SSW 4.6 mph - 0.00 in   Mostly Cloudy
1:25 AM 60.8 °F - 60.8 °F 100% 29.79 in 5.0 mi West 11.5 mph 21.9 mph 0.01 in   Mostly Cloudy
1:45 AM 60.8 °F - 60.8 °F 100% 29.79 in 5.0 mi SW 6.9 mph - 0.04 in   Mostly Cloudy
2:05 AM 60.8 °F - 60.8 °F 100% 29.78 in 10.0 mi South 6.9 mph - 0.00 in   Scattered Clouds
2:25 AM 60.8 °F - - N/A% 29.78 in 10.0 mi South 5.8 mph - 0.00 in   Scattered Clouds
2:45 AM 59.0 °F - - N/A% 29.78 in 10.0 mi South 5.8 mph - 0.00 in   Scattered Clouds
3:05 AM 59.0 °F - - N/A% 29.77 in 10.0 mi South 4.6 mph - 0.00 in   Scattered Clouds
3:25 AM 59.0 °F - - N/A% 29.78 in 10.0 mi South 5.8 mph - 0.00 in   Partly Cloudy
3:45 AM 59.0 °F - - N/A% 29.78 in 10.0 mi South 6.9 mph - 0.00 in   Clear
4:05 AM 59.0 °F - - N/A% 29.78 in 10.0 mi South 6.9 mph - 0.00 in   Clear
4:25 AM 57.2 °F - - N/A% 29.78 in 10.0 mi South 6.9 mph - 0.00 in   Clear
4:45 AM 57.2 °F - - N/A% 29.78 in 10.0 mi South 5.8 mph - 0.00 in   Partly Cloudy
5:05 AM 57.2 °F - - N/A% 29.78 in 10.0 mi SSE 6.9 mph - 0.00 in   Partly Cloudy
5:25 AM 59.0 °F - - N/A% 29.78 in 10.0 mi South 4.6 mph - 0.00 in   Scattered Clouds
5:45 AM 57.2 °F - - N/A% 29.79 in 10.0 mi South 3.5 mph - 0.00 in   Scattered Clouds
6:05 AM 57.2 °F - - N/A% 29.79 in 10.0 mi SSE 4.6 mph - 0.00 in   Scattered Clouds
6:25 AM 57.2 °F - - N/A% 29.80 in 8.0 mi South 4.6 mph - 0.00 in   Partly Cloudy
6:45 AM 59.0 °F - - N/A% 29.81 in 9.0 mi SSW 3.5 mph - 0.00 in   Partly Cloudy
7:05 AM 60.8 °F - - N/A% 29.82 in 10.0 mi SW 8.1 mph - 0.00 in   Partly Cloudy
7:25 AM 60.8 °F - - N/A% 29.82 in 10.0 mi SW 9.2 mph - 0.00 in   Partly Cloudy
7:45 AM 60.8 °F - 60.8 °F 100% 29.82 in 10.0 mi SW 9.2 mph - 0.00 in   Scattered Clouds
8:05 AM 60.8 °F - 60.8 °F 100% 29.83 in 9.0 mi SW 8.1 mph - 0.00 in   Scattered Clouds
8:25 AM 60.8 °F - 60.8 °F 100% 29.83 in 9.0 mi SW 9.2 mph - 0.00 in   Mostly Cloudy
8:45 AM 60.8 °F - 60.8 °F 100% 29.83 in 10.0 mi SW 10.4 mph - 0.00 in   Overcast
9:05 AM 62.6 °F - 62.6 °F 100% 29.83 in 10.0 mi WSW 11.5 mph - 0.00 in   Mostly Cloudy
9:25 AM 64.4 °F - 60.8 °F 88% 29.83 in 10.0 mi West 10.4 mph - 0.00 in   Mostly Cloudy
9:45 AM 64.4 °F - 60.8 °F 88% 29.83 in 10.0 mi WSW 11.5 mph 16.1 mph 0.00 in   Scattered Clouds
10:05 AM 64.4 °F - 60.8 °F 88% 29.83 in 10.0 mi WSW 12.7 mph - 0.00 in   Mostly Cloudy
10:25 AM 66.2 °F - 57.2 °F 73% 29.83 in 10.0 mi SW 16.1 mph - 0.00 in   Scattered Clouds
10:45 AM 64.4 °F - 57.2 °F 77% 29.83 in 10.0 mi WSW 13.8 mph - 0.00 in   Mostly Cloudy
11:05 AM 64.4 °F - 57.2 °F 77% 29.83 in 10.0 mi WSW 11.5 mph - 0.00 in   Mostly Cloudy
11:25 AM 64.4 °F - 57.2 °F 77% 29.83 in 10.0 mi WSW 12.7 mph 18.4 mph 0.00 in   Scattered Clouds
11:45 AM 66.2 °F - 55.4 °F 68% 29.83 in 10.0 mi WSW 15.0 mph 23.0 mph 0.00 in   Mostly Cloudy
12:05 PM 66.2 °F - 55.4 °F 68% 29.83 in 10.0 mi WSW 12.7 mph - 0.00 in   Mostly Cloudy
12:25 PM 66.2 °F - 55.4 °F 68% 29.83 in 10.0 mi WSW 12.7 mph 20.7 mph 0.00 in   Mostly Cloudy
12:45 PM 64.4 °F - 55.4 °F 73% 29.83 in 10.0 mi WSW 13.8 mph 18.4 mph 0.00 in   Mostly Cloudy
1:05 PM 64.4 °F - 55.4 °F 73% 29.83 in 10.0 mi WSW 13.8 mph 19.6 mph 0.00 in   Mostly Cloudy
1:25 PM 64.4 °F - 55.4 °F 73% 29.83 in 10.0 mi SW 11.5 mph - 0.00 in   Mostly Cloudy
1:45 PM 66.2 °F - 55.4 °F 68% 29.83 in 10.0 mi SW 20.7 mph 24.2 mph 0.00 in   Mostly Cloudy
2:05 PM 64.4 °F - 55.4 °F 73% 29.83 in 10.0 mi SW 15.0 mph 24.2 mph 0.00 in   Scattered Clouds
2:25 PM 66.2 °F - 55.4 °F 68% 29.83 in 10.0 mi WSW 17.3 mph 21.9 mph 0.00 in   Scattered Clouds
2:45 PM 64.4 °F - 57.2 °F 77% 29.84 in 4.0 mi West 12.7 mph - 0.00 in   Mostly Cloudy
3:05 PM 60.8 °F - 60.8 °F 100% 29.85 in 5.0 mi WNW 9.2 mph 18.4 mph 0.00 in   Mostly Cloudy
3:25 PM 60.8 °F - 60.8 °F 100% 29.85 in 9.0 mi West 8.1 mph - 0.01 in   Mostly Cloudy
3:45 PM 62.6 °F - 60.8 °F 94% 29.85 in 9.0 mi WSW 9.2 mph - 0.01 in   Scattered Clouds
4:05 PM 62.6 °F - 60.8 °F 94% 29.85 in 6.0 mi WSW 13.8 mph - 0.00 in   Mostly Cloudy
4:25 PM 62.6 °F - 60.8 °F 94% 29.85 in 9.0 mi WSW 13.8 mph 17.3 mph 0.00 in   Mostly Cloudy
4:45 PM 62.6 °F - 60.8 °F 94% 29.85 in 8.0 mi WNW 18.4 mph 24.2 mph 0.01 in   Mostly Cloudy
5:05 PM 62.6 °F - 55.4 °F 77% 29.86 in 10.0 mi WNW 16.1 mph 28.8 mph 0.00 in   Mostly Cloudy
5:25 PM 60.8 °F - 57.2 °F 88% 29.88 in 10.0 mi NW 17.3 mph 27.6 mph 0.00 in   Overcast
5:45 PM 57.2 °F - 53.6 °F 88% 29.90 in 10.0 mi NW 17.3 mph 25.3 mph 0.00 in   Overcast
6:05 PM 55.4 °F - 53.6 °F 94% 29.91 in 10.0 mi NW 17.3 mph 24.2 mph 0.00 in   Overcast
6:25 PM 53.6 °F - 53.6 °F 100% 29.93 in 1.5 mi North 19.6 mph - 0.00 in   Overcast
6:45 PM 51.8 °F - 51.8 °F 100% 29.94 in 1.5 mi North 15.0 mph - 0.00 in   Overcast
7:05 PM 50.0 °F - 50.0 °F 100% 29.95 in 2.5 mi North 15.0 mph 24.2 mph 0.00 in   Overcast
7:25 PM 48.2 °F - 48.2 °F 100% 29.97 in 8.0 mi NNW 18.4 mph 24.2 mph 0.00 in   Overcast
7:45 PM 48.2 °F - 48.2 °F 100% 29.98 in 9.0 mi North 17.3 mph 29.9 mph 0.00 in   Overcast
8:05 PM 48.2 °F - 48.2 °F 100% 29.99 in 5.0 mi North 16.1 mph - 0.00 in   Overcast
8:25 PM 46.4 °F 38.7 °F 46.4 °F 100% 30.01 in 4.0 mi North 20.7 mph 24.2 mph 0.00 in   Overcast
8:45 PM 46.4 °F 39.0 °F 46.4 °F 100% 30.02 in 10.0 mi North 19.6 mph 23.0 mph 0.00 in   Overcast
9:05 PM 46.4 °F 39.0 °F 46.4 °F 100% 30.02 in 10.0 mi North 19.6 mph - 0.00 in   Overcast
9:25 PM 46.4 °F 39.2 °F 46.4 °F 100% 30.03 in 10.0 mi North 18.4 mph - 0.00 in   Overcast
9:45 PM 46.4 °F 39.5 °F 46.4 °F 100% 30.04 in 10.0 mi North 17.3 mph - 0.00 in   Overcast
10:05 PM 44.6 °F 37.8 °F 44.6 °F 100% 30.05 in 10.0 mi North 15.0 mph 23.0 mph 0.00 in   Overcast
10:25 PM 44.6 °F 37.2 °F 44.6 °F 100% 30.07 in 10.0 mi North 17.3 mph 23.0 mph 0.00 in   Overcast
10:45 PM 44.6 °F 36.4 °F 44.6 °F 100% 30.08 in 10.0 mi North 20.7 mph 26.5 mph 0.00 in   Overcast
11:05 PM 44.6 °F 36.1 °F 44.6 °F 100% 30.09 in 10.0 mi North 21.9 mph 27.6 mph 0.00 in   Overcast
11:25 PM 44.6 °F 37.4 °F 44.6 °F 100% 30.09 in 10.0 mi North 16.1 mph 27.6 mph 0.00 in   Overcast
11:45 PM 44.6 °F 37.4 °F 44.6 °F 100% 30.10 in 10.0 mi North 16.1 mph 20.7 mph 0.00 in   Overcast